Flag for U.S.A. Weather past 2 weeks in New Haven, Connecticut, U.S.A.

Now
36 °F

Mostly cloudy.


Feels Like: 28 °F
Forecast: 33 / 42 °F
Wind: 12 mph from North

Location: Tweed-New Haven Airport

Current Time: Dec 21, 2014 at 8:05:08 PM

Latest Report: Dec 21, 2014 at 6:53 PM


Visibility: 7 mi

Pressure: 30.32 "Hg

Humidity: 82%

Dew point: 31 °F

Location of New HavenLocation

Historic Weather in New Haven — Graph

°F

New Haven temperature yesterday

Maximum temperature yesterday: 35 °F (at 8:53 PM)
Minimum temperature yesterday: 28 °F (at 7:53 AM)
Average temperature yesterday: 33 °F

Past Weeks' High & Low Weather Summary

 TemperatureHumidityPressure
High54 °F (Dec 17, 12:53 PM)89% (Dec 15, 3:04 AM)30.70 "Hg (Dec 15, 3:04 AM)
Low21 °F (Dec 8, 6:53 AM)25% (Dec 7, 2:53 PM)29.49 "Hg (Dec 10, 1:53 PM)
Average38 °F65%30.01 "Hg
* Reported Dec 6 6:53 PM — Dec 21 6:53 PM, New Haven, Weather by CustomWeather, © 2014

Note: Actual official high and low records may vary slightly from our data, if they occured in-between our weather recording intervals... More about our weather records

Advertising

New Haven weather history for previous 24 hours

 ConditionsComfort  
Time TempWeatherWind HumidityBarometerVisibility
6:53 PM
Dec 21
36 °FMostly cloudy.12 mph82%30.32 "Hg7 mi
5:53 PM36 °FMostly cloudy.9 mph82%30.30 "Hg3 mi
4:58 PM36 °FFog.8 mph82%30.30 "Hg2 mi
3:53 PM37 °FFog.6 mph82%30.28 "Hg2 mi
2:53 PM38 °FFog.15 mph79%30.27 "Hg3 mi
1:53 PM38 °FLight snow. Fog.10 mph79%30.27 "Hg3 mi
12:53 PM36 °FLight snow. Mostly cloudy.6 mph82%30.27 "Hg1 mi
11:53 AM37 °FLight snow. Mostly cloudy.8 mph79%30.28 "Hg2 mi
10:53 AM36 °FOvercast.9 mph82%30.29 "Hg4 mi
9:53 AM36 °FLight snow. More clouds than sun.9 mph79%30.30 "Hg3 mi
8:53 AM35 °FLow clouds.9 mph82%30.29 "Hg8 mi
8:00 AM35 °FLight snow. Low clouds.8 mph82%30.29 "Hg3 mi
6:53 AM35 °FOvercast.12 mph78%30.28 "Hg6 mi
5:53 AM35 °FMostly cloudy.9 mph78%30.27 "Hg5 mi
4:53 AM35 °FOvercast.9 mph78%30.26 "Hg10 mi
3:53 AM35 °FOvercast.8 mph75%30.26 "Hg10 mi
2:53 AM35 °FOvercast.3 mph72%30.27 "Hg9 mi
2:00 AM34 °FLight snow. Overcast.3 mph70%30.28 "Hg2 mi
12:53 AM35 °FOvercast.6 mph64%30.27 "Hg10 mi
11:53 PM
Dec 20
35 °FOvercast.3 mph61%30.27 "Hg10 mi
11:03 PM35 °FMostly cloudy.3 mph61%30.28 "Hg10 mi
10:53 PM35 °FMostly cloudy.3 mph61%30.28 "Hg10 mi
9:53 PM35 °FOvercast.3 mph61%30.29 "Hg10 mi
8:53 PM35 °FOvercast.No wind64%30.28 "Hg10 mi
Weather by CustomWeather, © 2014

See weather overviewHow to use our weather pages